[[{"header":{"parameterUnit":"m.s-1","parameterCategory":1,"la1":30.2991,"la2":30.254,"lo1":-89.0895,"lo2":-89.0444,"dy":0.0017,"dx":0.0017,"nx":28,"ny":28,"refTime":"2026-01-02T03:00:00:Z","depth":0,"parameterNumber":2,"parameterNumberName":"U-component_of_WINDS"},"data":[0,0,0,0,0,0,0,0,0,0,0,0,0,0,0,0,0,0,0,0,0,0,0,0,0,0,0,0,0,0,0,0,0,0,0,0,0,0,0,0,0,0,0,0,0,0,0,0,0,0,0,0,0,0,0,0,0,0,2.9585,2.9588,0,2.9803,2.9805,2.9808,2.9821,2.9819,2.9817,2.9814,3.0042,3.005,3.0058,0,0,0,0,0,0,0,0,0,0,0,0,0,2.9186,2.9194,2.9585,2.9588,2.9591,2.9802,2.9805,2.9808,2.9822,2.9819,2.9816,2.9813,3.0039,3.0049,3.0059,0,0,0,0,0,0,0,0,0,0,0,0,0,2.9377,2.9196,2.9585,2.9623,2.9628,2.9802,2.9805,2.9809,2.9823,2.9819,2.9815,2.9812,3.0036,3.0048,3.006,3.0212,0,0,3.0099,3.0104,0,0,0,0,0,0,0,0,2.9366,2.9392,2.9614,2.962,2.9627,2.9781,2.9748,2.9944,2.9823,2.9749,2.9814,2.981,2.9958,2.9977,3.0026,3.0223,3.0233,3.01,3.0108,3.0113,3.0116,0,0,0,0,0,0,0,2.9353,2.9383,2.9671,2.9618,2.9625,2.9631,2.9654,2.9785,2.9872,2.9755,2.9757,2.9782,2.9961,3.0014,3.0032,3.0236,3.01,3.0111,3.0118,3.0123,3.0568,3.0572,0,0,0,0,0,0,2.9332,2.9372,2.9664,2.9678,2.9485,2.9641,2.9666,2.9735,2.9871,2.9888,2.9785,2.9782,2.9994,3.0017,3.004,3.0226,3.0113,3.0125,3.0132,3.0564,3.0569,3.0574,0,0,0,0,0,0,2.9323,2.9358,2.9656,2.9525,2.9564,2.9651,2.9729,2.9742,2.9794,2.9893,2.9909,2.9823,2.9992,3.0022,3.0169,3.0234,3.013,3.0142,3.0559,3.0565,3.0571,3.0598,0,0,0,0,0,0,2.9312,2.9355,2.9412,2.9526,2.957,2.978,2.9733,2.9749,2.9815,2.9813,2.9933,2.9949,2.9992,3.015,3.0181,3.0249,3.0151,3.0553,3.0562,3.0569,3.0592,3.0605,3.0616,0,0,0,0,0,2.9298,2.9412,2.9415,2.945,2.9644,2.9783,2.9809,2.9854,2.9821,2.988,2.9943,2.9945,3.0222,3.0165,3.02,3.0273,3.0549,3.0559,3.0569,3.0587,3.0603,3.0616,0,0,0,0,0,0,2.9305,2.9428,2.9432,2.9587,2.9674,2.9785,2.9861,2.9869,2.9969,2.9964,3.0018,3.0045,3.0189,3.0246,3.0181,3.0427,3.0382,3.0399,3.0384,3.04,3.0411,3.0394,3.0162,0,0,0,0,0,2.9324,2.9426,2.9529,2.9655,2.9699,2.9772,2.9835,2.9862,2.9956,2.9993,3.0067,3.0159,3.0267,3.0337,3.0441,3.0601,3.0627,3.0669,3.0681,3.069,3.0704,3.0792,3.0811,3.0605,3.0605,3.0605,0,0,2.9366,2.9445,2.9506,2.9659,2.973,2.9835,2.9803,2.9916,2.9995,3.0011,3.0153,3.0211,3.0318,3.0471,3.0542,3.0523,3.0767,3.0702,3.0709,3.0718,3.0804,3.0823,3.0841,3.0612,3.0611,3.061,0,0,2.9494,2.9565,2.9678,2.9749,2.9857,2.9905,2.9932,3.0042,3.0081,3.0224,3.0238,3.0334,3.0518,3.0593,3.0655,3.0813,3.0819,3.0846,3.0908,3.0994,3.101,3.1024,3.108,3.1099,3.086,3.086,3.086,0,2.9532,2.9689,2.9735,2.9847,2.9914,2.9932,3.0047,3.0115,3.0252,3.0298,3.0274,3.0506,3.0579,3.075,3.0788,3.0838,3.0872,3.0832,3.1003,3.1019,3.1033,3.1086,3.1107,3.0863,3.0862,3.0862,3.0862,0,2.9731,2.984,2.9919,3.0048,3.0124,3.0237,3.0301,3.0373,3.0394,3.0446,3.0592,3.068,3.0803,3.0846,3.0869,3.1021,3.1005,3.0992,3.0948,3.1054,3.1105,3.1126,3.0866,3.0865,3.0864,3.0864,0,0,2.9868,3.0022,3.005,3.0108,3.0228,3.0314,3.043,3.0548,3.0608,3.0702,3.08,3.0956,3.0944,3.1015,3.1047,3.1122,3.124,3.11,3.1103,3.1122,3.1413,3.142,3.1443,3.1246,3.125,3.1253,3.1403,0,3.0009,3.0211,3.0256,3.0431,3.0532,3.0552,3.0652,3.0737,3.0789,3.0884,3.0942,3.105,3.1027,3.107,3.1146,3.121,3.1299,3.12,3.1337,3.1342,3.1308,3.147,3.1479,3.1617,3.1424,3.1427,3.143,0,3.02,3.0296,3.048,3.0587,3.0631,3.072,3.0832,3.0922,3.102,3.1053,3.1131,3.1155,3.1277,3.1228,3.1397,3.1328,3.1388,3.1428,3.1435,3.1448,3.1391,3.1487,3.1662,3.1681,3.1462,3.1459,3.1457,0,3.028,3.0456,3.0589,3.0639,3.0767,3.0829,3.0886,3.098,3.1048,3.1147,3.1192,3.1304,3.1366,3.1453,3.1507,3.1467,3.1672,3.1627,3.1702,3.1701,3.1743,3.1739,3.1928,3.1784,3.1784,3.1783,3.1783,0,3.0431,3.0543,3.0626,3.0708,3.0834,3.0886,3.101,3.1067,3.115,3.1244,3.127,3.1358,3.1425,3.1523,3.1567,3.1699,3.1728,3.1757,3.1767,3.1754,3.175,3.1793,3.1784,3.1789,3.1788,3.1787,3.1786,0,3.0541,3.0601,3.0747,3.0856,3.0886,3.0974,3.1069,3.1149,3.1202,3.132,3.1351,3.1434,3.1551,3.1614,3.1761,3.179,3.1938,3.1944,3.1904,3.1908,3.1979,3.1971,3.22,3.2233,3.2068,3.207,3.2071,0,3.0632,3.0718,3.0836,3.09,3.0957,3.106,3.1129,3.1184,3.1256,3.1374,3.1441,3.1558,3.1655,3.1841,3.1915,3.2028,3.2035,3.2108,3.2053,3.2036,3.2035,3.2028,3.2037,3.2117,3.2119,3.212,3.2121,0,3.0787,3.0813,3.0911,3.102,3.1102,3.1191,3.1279,3.133,3.14,3.148,3.1598,3.1673,3.1822,3.1939,3.2057,3.2117,3.2132,3.2138,3.2161,3.2148,3.212,3.2135,3.1929,3.2132,3.2131,3.213,3.213,3.2129,3.089,3.0967,3.1062,3.117,3.1242,3.1324,3.1405,3.1467,3.1566,3.169,3.1718,3.1843,3.194,3.21,3.2164,3.2263,3.2249,3.2283,3.2291,3.2298,3.23,3.2106,3.2285,3.2285,3.2285,3.2285,3.2285,0,3.1045,3.1107,3.1206,3.1328,3.1414,3.1418,3.1517,3.1588,3.1697,3.1786,3.188,3.2017,3.213,3.2213,3.233,3.2393,3.2403,3.2422,3.2417,3.2431,3.2307,3.2274,3.2412,3.2412,3.2412,3.2412,3.2412,3.2412,3.1136,3.1266,3.1303,3.147,3.1532,3.1653,3.1709,3.1785,3.1855,3.2006,3.2099,3.2153,3.224,3.2363,3.2467,3.2489,3.253,3.2549,3.2571,3.2453,3.2439,3.2426,3.2396,3.2557,3.2558,3.2686,3.2688,3.2688]},{"header":{"parameterUnit":"m.s-1","parameterCategory":1,"la1":30.2991,"la2":30.254,"lo1":-89.0895,"lo2":-89.0444,"dy":0.0017,"dx":0.0017,"nx":28,"ny":28,"refTime":"2026-01-02T03:00:00:Z","depth":0,"parameterNumber":3,"parameterNumberName":"V-component_of_WINDS"},"data":[0,0,0,0,0,0,0,0,0,0,0,0,0,0,0,0,0,0,0,0,0,0,0,0,0,0,0,0,0,0,0,0,0,0,0,0,0,0,0,0,0,0,0,0,0,0,0,0,0,0,0,0,0,0,0,0,0,0,2.149,2.149,0,2.1494,2.1494,2.1494,2.1445,2.1444,2.1443,2.1441,2.1446,2.1447,2.1448,0,0,0,0,0,0,0,0,0,0,0,0,0,2.1439,2.144,2.149,2.149,2.149,2.1494,2.1494,2.1494,2.1446,2.1444,2.1442,2.1441,2.1445,2.1447,2.1448,0,0,0,0,0,0,0,0,0,0,0,0,0,2.1454,2.1441,2.149,2.1466,2.1464,2.1494,2.1494,2.1494,2.1446,2.1444,2.1442,2.144,2.1445,2.1447,2.1449,2.1501,0,0,2.1455,2.1456,0,0,0,0,0,0,0,0,2.1453,2.1456,2.147,2.1468,2.1466,2.1467,2.1478,2.1496,2.1446,2.1453,2.1441,2.1439,2.1454,2.1455,2.1461,2.1501,2.1502,2.1455,2.1456,2.1457,2.1458,0,0,0,0,0,0,0,2.1452,2.1456,2.1491,2.147,2.1467,2.1455,2.1455,2.1481,2.1465,2.1452,2.1449,2.145,2.1453,2.1459,2.146,2.1502,2.1455,2.1457,2.1458,2.1459,2.1585,2.1587,0,0,0,0,0,0,2.1455,2.1455,2.1491,2.1491,2.1454,2.1458,2.1458,2.1469,2.1464,2.1462,2.1451,2.1447,2.1456,2.1458,2.146,2.1521,2.1457,2.1459,2.146,2.1583,2.1586,2.1588,0,0,0,0,0,0,2.1454,2.1458,2.1491,2.1472,2.1476,2.1461,2.1473,2.147,2.1476,2.1464,2.1461,2.1461,2.1455,2.1457,2.1491,2.1521,2.146,2.1462,2.158,2.1584,2.1587,2.1644,0,0,0,0,0,0,2.1452,2.1458,2.1478,2.1473,2.1477,2.1522,2.1475,2.1471,2.1479,2.1474,2.1472,2.1469,2.1453,2.1488,2.1493,2.1522,2.1463,2.1578,2.1582,2.1586,2.1639,2.1648,2.1656,0,0,0,0,0,2.1451,2.1494,2.148,2.1484,2.1501,2.1524,2.1526,2.1507,2.1482,2.1502,2.1494,2.1469,2.1517,2.1492,2.1497,2.1528,2.1576,2.1581,2.1585,2.1635,2.1647,2.1656,0,0,0,0,0,0,2.1503,2.1493,2.1477,2.152,2.1523,2.1516,2.154,2.152,2.153,2.1525,2.1501,2.1501,2.1539,2.1536,2.1509,2.1578,2.1542,2.1548,2.1578,2.1589,2.1597,2.1597,2.1465,0,0,0,0,0,2.152,2.1539,2.1529,2.1568,2.1571,2.1555,2.1564,2.155,2.1552,2.1553,2.1548,2.1551,2.1567,2.1578,2.1591,2.1639,2.1637,2.1662,2.167,2.1678,2.1683,2.1707,2.1718,2.1604,2.1604,2.1603,0,0,2.1554,2.1551,2.1565,2.1579,2.1579,2.16,2.1557,2.158,2.1595,2.1557,2.1588,2.1585,2.1587,2.1627,2.1645,2.1627,2.1714,2.1684,2.169,2.1691,2.1713,2.1724,2.1734,2.1607,2.1606,2.1606,0,0,2.1627,2.1627,2.1659,2.1661,2.1663,2.1652,2.166,2.1656,2.1652,2.1683,2.1655,2.1672,2.1699,2.1702,2.1706,2.178,2.1758,2.1785,2.1831,2.1855,2.1864,2.1871,2.1897,2.1907,2.1791,2.1791,2.1791,0,2.167,2.1699,2.1678,2.1704,2.171,2.1677,2.1709,2.1711,2.1718,2.1723,2.1702,2.1736,2.1735,2.1775,2.1793,2.1799,2.1806,2.1785,2.1864,2.1872,2.1879,2.1903,2.1913,2.1794,2.1794,2.1794,2.1793,0,2.1751,2.1772,2.1798,2.1805,2.1815,2.1843,2.1826,2.1839,2.1823,2.1814,2.1846,2.1844,2.1857,2.1865,2.185,2.1904,2.1892,2.1868,2.1831,2.1893,2.1916,2.1925,2.1799,2.1798,2.1797,2.1796,0,0,2.1858,2.1852,2.1862,2.1864,2.1864,2.1879,2.1907,2.1919,2.1929,2.1935,2.1957,2.1981,2.1958,2.1964,2.1949,2.197,2.2028,2.1943,2.1943,2.1959,2.2087,2.2104,2.2116,2.2013,2.2015,2.2016,2.2086,0,2.1928,2.1974,2.1956,2.2003,2.2022,2.199,2.2014,2.2016,2.2009,2.2023,2.2015,2.2032,2.2002,2.2005,2.2025,2.2017,2.2053,2.2012,2.2033,2.2034,2.2033,2.2127,2.2146,2.2213,2.2095,2.2097,2.2098,0,2.2017,2.2026,2.2075,2.2071,2.2078,2.21,2.2109,2.2124,2.2125,2.2118,2.2125,2.2105,2.2131,2.2094,2.2129,2.2102,2.2109,2.2107,2.2109,2.211,2.207,2.2131,2.2233,2.2243,2.2111,2.211,2.2109,0,2.2089,2.2113,2.2146,2.2149,2.2145,2.2161,2.216,2.2159,2.2168,2.2176,2.2181,2.2192,2.2199,2.2208,2.2191,2.2166,2.2229,2.2191,2.2224,2.2224,2.2238,2.2237,2.2343,2.2244,2.2243,2.2243,2.2243,0,2.217,2.2201,2.2178,2.2198,2.2232,2.2211,2.2245,2.224,2.224,2.2259,2.2232,2.225,2.2227,2.2242,2.223,2.2261,2.2264,2.2259,2.2255,2.2261,2.2262,2.2266,2.2261,2.2246,2.2245,2.2245,2.2244,0,2.2256,2.2242,2.2275,2.2269,2.2268,2.2293,2.2287,2.2305,2.2296,2.232,2.2324,2.231,2.2327,2.2311,2.2327,2.2319,2.236,2.235,2.2359,2.2356,2.239,2.2387,2.2501,2.2515,2.2408,2.2409,2.2409,0,2.2308,2.2332,2.2328,2.2338,2.2339,2.2356,2.2364,2.2344,2.2353,2.2357,2.2375,2.2389,2.24,2.2428,2.2419,2.2431,2.2421,2.246,2.2423,2.2428,2.2421,2.242,2.2422,2.2468,2.2469,2.247,2.2471,0,2.2403,2.2395,2.2408,2.2418,2.2429,2.2436,2.2442,2.2452,2.2431,2.2443,2.246,2.2468,2.2485,2.25,2.2509,2.2508,2.2486,2.2483,2.2491,2.2498,2.2502,2.25,2.238,2.2481,2.248,2.2479,2.2478,2.2478,2.2473,2.2492,2.2492,2.2508,2.251,2.2515,2.2532,2.2525,2.2538,2.255,2.2537,2.2558,2.2559,2.2569,2.257,2.2586,2.2569,2.2581,2.2584,2.2587,2.2592,2.25,2.2587,2.2587,2.2587,2.2587,2.2586,0,2.2566,2.2564,2.2579,2.2587,2.2599,2.2578,2.2582,2.2594,2.2612,2.2615,2.2626,2.2645,2.2659,2.2651,2.2663,2.2678,2.2668,2.2681,2.268,2.268,2.2606,2.2598,2.2689,2.2689,2.2689,2.2689,2.2689,2.2689,2.2615,2.2646,2.2638,2.267,2.2668,2.2688,2.2692,2.2697,2.2699,2.2722,2.2733,2.2728,2.2726,2.2738,2.275,2.2747,2.2753,2.277,2.2764,2.2695,2.2685,2.2676,2.2668,2.2772,2.2772,2.2836,2.2837,2.2837]}]]